Year,Month,Day,Hour,Minute,Value (Times are PST for temperature in C)
2012,09,30,00,00,9.90
2012,09,30,00,01,9.90
2012,09,30,00,02,9.90
2012,09,30,00,03,9.80
2012,09,30,00,04,9.80
2012,09,30,00,05,9.80
2012,09,30,00,06,9.80
2012,09,30,00,07,9.80
2012,09,30,00,08,9.80
2012,09,30,00,09,9.80
2012,09,30,00,10,9.80
2012,09,30,00,11,9.70
2012,09,30,00,12,9.70
2012,09,30,00,13,9.70
2012,09,30,00,17,9.70
2012,09,30,00,18,9.70
2012,09,30,00,19,9.70
2012,09,30,00,20,9.70
2012,09,30,00,21,9.60
2012,09,30,00,22,9.60
2012,09,30,00,23,9.60
2012,09,30,00,24,9.60
2012,09,30,00,25,9.60
2012,09,30,00,26,9.60
2012,09,30,00,27,9.50
2012,09,30,00,28,9.50
2012,09,30,00,29,9.50
2012,09,30,00,30,9.40
2012,09,30,00,31,9.40
2012,09,30,00,32,9.40
2012,09,30,00,33,9.30
2012,09,30,00,34,9.30
2012,09,30,00,35,9.30
2012,09,30,00,36,9.30
2012,09,30,00,37,9.20
2012,09,30,00,38,9.20
2012,09,30,00,39,9.20
2012,09,30,00,40,9.20
2012,09,30,00,41,9.20
2012,09,30,00,42,9.20
2012,09,30,00,43,9.10
2012,09,30,00,44,9.10
2012,09,30,00,45,9.10
2012,09,30,00,46,9.10
2012,09,30,00,47,9.10
2012,09,30,00,48,9.10
2012,09,30,00,49,9.00
2012,09,30,00,50,9.00
2012,09,30,00,51,9.00
2012,09,30,00,52,9.00
2012,09,30,00,53,8.90
2012,09,30,00,54,8.90
2012,09,30,00,55,8.90
2012,09,30,00,56,8.90
2012,09,30,00,57,8.80
2012,09,30,00,58,8.80
2012,09,30,00,59,8.80
2012,09,30,01,00,8.80
2012,09,30,01,01,8.80
2012,09,30,01,02,8.80
2012,09,30,01,03,8.80
2012,09,30,01,04,8.70
2012,09,30,01,05,8.70
2012,09,30,01,06,8.70
2012,09,30,01,07,8.70
2012,09,30,01,08,8.70
2012,09,30,01,09,8.70
2012,09,30,01,10,8.60
2012,09,30,01,11,8.60
2012,09,30,01,12,8.60
2012,09,30,01,13,8.60
2012,09,30,01,14,8.60
2012,09,30,01,15,8.50
2012,09,30,01,16,8.50
2012,09,30,01,17,8.50
2012,09,30,01,18,8.40
2012,09,30,01,19,8.40
2012,09,30,01,20,8.40
2012,09,30,01,21,8.40
2012,09,30,01,22,8.40
2012,09,30,01,23,8.40
2012,09,30,01,24,8.40
2012,09,30,01,25,8.40
2012,09,30,01,26,8.40
2012,09,30,01,27,8.30
2012,09,30,01,28,8.30
2012,09,30,01,29,8.30
2012,09,30,01,30,8.30
2012,09,30,01,31,8.30
2012,09,30,01,32,8.30
2012,09,30,01,33,8.20
2012,09,30,01,34,8.20
2012,09,30,01,35,8.20
2012,09,30,01,36,8.20
2012,09,30,01,37,8.20
2012,09,30,01,38,8.20
2012,09,30,01,39,8.20
2012,09,30,01,40,8.20
2012,09,30,01,41,8.20
2012,09,30,01,42,8.10
2012,09,30,01,43,8.10
2012,09,30,01,44,8.10
2012,09,30,01,45,8.10
2012,09,30,01,46,8.10
2012,09,30,01,47,8.10
2012,09,30,01,48,8.00
2012,09,30,01,49,8.00
2012,09,30,01,50,8.00
2012,09,30,01,51,7.90
2012,09,30,01,52,7.90
2012,09,30,01,53,7.90
2012,09,30,01,54,7.80
2012,09,30,01,55,7.90
2012,09,30,01,56,7.90
2012,09,30,01,57,7.90
2012,09,30,01,58,7.90
2012,09,30,01,59,7.90
2012,09,30,02,00,7.90
2012,09,30,02,01,7.90
2012,09,30,02,02,7.90
2012,09,30,02,03,7.90
2012,09,30,02,04,7.90
2012,09,30,02,05,7.90
2012,09,30,02,06,7.90
2012,09,30,02,07,7.90
2012,09,30,02,08,7.90
2012,09,30,02,09,7.90
2012,09,30,02,10,7.80
2012,09,30,02,11,7.80
2012,09,30,02,12,7.80
2012,09,30,02,13,7.80
2012,09,30,02,14,7.80
2012,09,30,02,15,7.70
2012,09,30,02,16,7.70
2012,09,30,02,17,7.70
2012,09,30,02,18,7.70
2012,09,30,02,19,7.70
2012,09,30,02,20,7.70
2012,09,30,02,21,7.70
2012,09,30,02,22,7.70
2012,09,30,02,23,7.60
2012,09,30,02,24,7.60
2012,09,30,02,25,7.60
2012,09,30,02,26,7.60
2012,09,30,02,27,7.60
2012,09,30,02,28,7.60
2012,09,30,02,29,7.60
2012,09,30,02,30,7.50
2012,09,30,02,31,7.50
2012,09,30,02,32,7.50
2012,09,30,02,33,7.50
2012,09,30,02,34,7.50
2012,09,30,02,35,7.50
2012,09,30,02,36,7.50
2012,09,30,02,37,7.50
2012,09,30,02,38,7.40
2012,09,30,02,39,7.40
2012,09,30,02,40,7.40
2012,09,30,02,41,7.40
2012,09,30,02,42,7.40
2012,09,30,02,43,7.40
2012,09,30,02,44,7.40
2012,09,30,02,45,7.30
2012,09,30,02,46,7.30
2012,09,30,02,47,7.30
2012,09,30,02,48,7.30
2012,09,30,02,49,7.30
2012,09,30,02,50,7.40
2012,09,30,02,51,7.40
2012,09,30,02,52,7.30
2012,09,30,02,53,7.30
2012,09,30,02,54,7.30
2012,09,30,02,55,7.30
2012,09,30,02,56,7.30
2012,09,30,02,57,7.30
2012,09,30,02,58,7.30
2012,09,30,02,59,7.20
2012,09,30,03,00,7.20
2012,09,30,03,01,7.20
2012,09,30,03,02,7.20
2012,09,30,03,03,7.20
2012,09,30,03,04,7.10
2012,09,30,03,05,7.10
2012,09,30,03,06,7.10
2012,09,30,03,07,7.10
2012,09,30,03,08,7.10
2012,09,30,03,09,7.10
2012,09,30,03,10,7.10
2012,09,30,03,11,7.10
2012,09,30,03,12,7.10
2012,09,30,03,13,7.00
2012,09,30,03,14,7.00
2012,09,30,03,15,7.00
2012,09,30,03,16,7.00
2012,09,30,03,17,7.00
2012,09,30,03,18,7.00
2012,09,30,03,19,7.00
2012,09,30,03,20,7.00
2012,09,30,03,21,7.00
2012,09,30,03,22,7.00
2012,09,30,03,23,7.00
2012,09,30,03,24,7.00
2012,09,30,03,25,7.00
2012,09,30,03,26,7.00
2012,09,30,03,27,7.00
2012,09,30,03,28,7.00
2012,09,30,03,29,7.00
2012,09,30,03,30,7.00
2012,09,30,03,31,7.00
2012,09,30,03,32,7.00
2012,09,30,03,33,7.00
2012,09,30,03,34,7.00
2012,09,30,03,35,7.00
2012,09,30,03,36,7.00
2012,09,30,03,37,7.00
2012,09,30,03,38,7.00
2012,09,30,03,39,7.00
2012,09,30,03,40,7.00
2012,09,30,03,41,6.90
2012,09,30,03,42,6.90
2012,09,30,03,43,6.90
2012,09,30,03,44,6.90
2012,09,30,03,45,6.90
2012,09,30,03,46,6.90
2012,09,30,03,47,6.90
2012,09,30,03,48,6.90
2012,09,30,03,49,6.90
2012,09,30,03,50,6.90
2012,09,30,03,51,6.90
2012,09,30,03,52,6.80
2012,09,30,03,53,6.80
2012,09,30,03,54,6.80
2012,09,30,03,55,6.80
2012,09,30,03,56,6.80
2012,09,30,03,57,6.80
2012,09,30,03,58,6.80
2012,09,30,03,59,6.80
2012,09,30,04,00,6.80
2012,09,30,04,01,6.80
2012,09,30,04,02,6.80
2012,09,30,04,03,6.80
2012,09,30,04,04,6.80
2012,09,30,04,05,6.80
2012,09,30,04,06,6.80
2012,09,30,04,07,6.80
2012,09,30,04,08,6.80
2012,09,30,04,09,6.80
2012,09,30,04,10,6.80
2012,09,30,04,11,6.70
2012,09,30,04,12,6.70
2012,09,30,04,13,6.70
2012,09,30,04,14,6.70
2012,09,30,04,15,6.70
2012,09,30,04,16,6.70
2012,09,30,04,17,6.70
2012,09,30,04,18,6.70
2012,09,30,04,19,6.70
2012,09,30,04,20,6.70
2012,09,30,04,21,6.70
2012,09,30,04,22,6.70
2012,09,30,04,23,6.70
2012,09,30,04,24,6.70
2012,09,30,04,25,6.70
2012,09,30,04,26,6.70
2012,09,30,04,27,6.70
2012,09,30,04,28,6.70
2012,09,30,04,29,6.70
2012,09,30,04,30,6.70
2012,09,30,04,31,6.70
2012,09,30,04,32,6.70
2012,09,30,04,33,6.70
2012,09,30,04,34,6.70
2012,09,30,04,35,6.70
2012,09,30,04,36,6.70
2012,09,30,04,37,6.60
2012,09,30,04,38,6.60
2012,09,30,04,39,6.60
2012,09,30,04,40,6.60
2012,09,30,04,41,6.60
2012,09,30,04,42,6.60
2012,09,30,04,43,6.60
2012,09,30,04,44,6.60
2012,09,30,04,45,6.60
2012,09,30,04,46,6.60
2012,09,30,04,47,6.60
2012,09,30,04,48,6.60
2012,09,30,04,49,6.60
2012,09,30,04,50,6.50
2012,09,30,04,51,6.50
2012,09,30,04,52,6.50
2012,09,30,04,53,6.50
2012,09,30,04,54,6.50
2012,09,30,04,55,6.50
2012,09,30,04,56,6.50
2012,09,30,04,57,6.40
2012,09,30,04,58,6.40
2012,09,30,04,59,6.40
2012,09,30,05,00,6.40
2012,09,30,05,01,6.40
2012,09,30,05,02,6.40
2012,09,30,05,03,6.40
2012,09,30,05,04,6.40
2012,09,30,05,05,6.40
2012,09,30,05,06,6.40
2012,09,30,05,07,6.40
2012,09,30,05,08,6.40
2012,09,30,05,09,6.40
2012,09,30,05,10,6.40
2012,09,30,05,11,6.40
2012,09,30,05,12,6.40
2012,09,30,05,13,6.40
2012,09,30,05,14,6.40
2012,09,30,05,15,6.40
2012,09,30,05,16,6.40
2012,09,30,05,17,6.40
2012,09,30,05,18,6.40
2012,09,30,05,19,6.40
2012,09,30,05,20,6.40
2012,09,30,05,21,6.30
2012,09,30,05,22,6.30
2012,09,30,05,23,6.30
2012,09,30,05,24,6.30
2012,09,30,05,25,6.30
2012,09,30,05,26,6.30
2012,09,30,05,27,6.30
2012,09,30,05,28,6.30
2012,09,30,05,29,6.30
2012,09,30,05,30,6.30
2012,09,30,05,31,6.20
2012,09,30,05,32,6.20
2012,09,30,05,33,6.20
2012,09,30,05,34,6.20
2012,09,30,05,35,6.20
2012,09,30,05,36,6.20
2012,09,30,05,37,6.20
2012,09,30,05,38,6.20
2012,09,30,05,39,6.20
2012,09,30,05,40,6.20
2012,09,30,05,41,6.20
2012,09,30,05,42,6.20
2012,09,30,05,43,6.20
2012,09,30,05,44,6.20
2012,09,30,05,45,6.20
2012,09,30,05,46,6.20
2012,09,30,05,47,6.20
2012,09,30,05,48,6.20
2012,09,30,05,49,6.20
2012,09,30,05,50,6.20
2012,09,30,05,51,6.20
2012,09,30,05,52,6.20
2012,09,30,05,53,6.20
2012,09,30,05,54,6.20
2012,09,30,05,55,6.20
2012,09,30,05,56,6.20
2012,09,30,05,57,6.20
2012,09,30,05,58,6.20
2012,09,30,05,59,6.20
2012,09,30,06,00,6.20
2012,09,30,06,01,6.20
2012,09,30,06,02,6.20
2012,09,30,06,03,6.20
2012,09,30,06,04,6.20
2012,09,30,06,05,6.20
2012,09,30,06,06,6.10
2012,09,30,06,07,6.10
2012,09,30,06,08,6.10
2012,09,30,06,09,6.10
2012,09,30,06,10,6.10
2012,09,30,06,11,6.10
2012,09,30,06,12,6.10
2012,09,30,06,13,6.10
2012,09,30,06,14,6.10
2012,09,30,06,15,6.10
2012,09,30,06,16,6.10
2012,09,30,06,17,6.10
2012,09,30,06,18,6.10
2012,09,30,06,19,6.00
2012,09,30,06,20,6.00
2012,09,30,06,21,6.00
2012,09,30,06,22,6.10
2012,09,30,06,23,6.10
2012,09,30,06,24,6.10
2012,09,30,06,25,6.10
2012,09,30,06,26,6.10
2012,09,30,06,27,6.10
2012,09,30,06,28,6.10
2012,09,30,06,29,6.10
2012,09,30,06,30,6.10
2012,09,30,06,31,6.10
2012,09,30,06,32,6.10
2012,09,30,06,33,6.00
2012,09,30,06,34,6.00
2012,09,30,06,35,6.00
2012,09,30,06,36,6.00
2012,09,30,06,37,6.00
2012,09,30,06,38,6.00
2012,09,30,06,39,6.00
2012,09,30,06,40,6.00
2012,09,30,06,41,6.00
2012,09,30,06,42,6.00
2012,09,30,06,43,6.00
2012,09,30,06,44,6.00
2012,09,30,06,45,6.00
2012,09,30,06,46,6.00
2012,09,30,06,47,6.00
2012,09,30,06,48,5.90
2012,09,30,06,49,5.90
2012,09,30,06,50,5.90
2012,09,30,06,51,5.90
2012,09,30,06,52,5.90
2012,09,30,06,53,5.80
2012,09,30,06,54,5.80
2012,09,30,06,55,5.80
2012,09,30,06,56,5.80
2012,09,30,06,57,5.80
2012,09,30,06,58,5.80
2012,09,30,06,59,5.80
2012,09,30,07,00,5.80
2012,09,30,07,01,5.80
2012,09,30,07,02,5.80
2012,09,30,07,03,5.80
2012,09,30,07,04,5.80
2012,09,30,07,05,5.80
2012,09,30,07,06,5.80
2012,09,30,07,07,5.70
2012,09,30,07,08,5.70
2012,09,30,07,09,5.70
2012,09,30,07,10,5.70
2012,09,30,07,11,5.70
2012,09,30,07,12,5.70
2012,09,30,07,13,5.70
2012,09,30,07,14,5.70
2012,09,30,07,15,5.70
2012,09,30,07,16,5.70
2012,09,30,07,17,5.70
2012,09,30,07,18,5.70
2012,09,30,07,19,5.70
2012,09,30,07,20,5.70
2012,09,30,07,21,5.70
2012,09,30,07,22,5.70
2012,09,30,07,23,5.70
2012,09,30,07,24,5.70
2012,09,30,07,25,5.70
2012,09,30,07,26,5.70
2012,09,30,07,27,5.70
2012,09,30,07,28,5.70
2012,09,30,07,29,5.70
2012,09,30,07,30,5.70
2012,09,30,07,31,5.70
2012,09,30,07,32,5.70
2012,09,30,07,33,5.70
2012,09,30,07,34,5.70
2012,09,30,07,35,5.70
2012,09,30,07,36,5.70
2012,09,30,07,37,5.70
2012,09,30,07,38,5.70
2012,09,30,07,39,5.70
2012,09,30,07,40,5.70
2012,09,30,07,41,5.70
2012,09,30,07,42,5.70
2012,09,30,07,43,5.70
2012,09,30,07,44,5.70
2012,09,30,07,45,5.70
2012,09,30,07,46,5.70
2012,09,30,07,47,5.70
2012,09,30,07,48,5.70
2012,09,30,07,49,5.70
2012,09,30,07,50,5.70
2012,09,30,07,51,5.70
2012,09,30,07,52,5.80
2012,09,30,07,53,5.80
2012,09,30,07,54,5.80
2012,09,30,07,55,5.80
2012,09,30,07,56,5.80
2012,09,30,07,57,5.80
2012,09,30,07,58,5.80
2012,09,30,07,59,5.80
2012,09,30,08,00,5.80
2012,09,30,08,01,5.80
2012,09,30,08,02,5.80
2012,09,30,08,03,5.80
2012,09,30,08,04,5.80
2012,09,30,08,05,5.80
2012,09,30,08,06,5.80
2012,09,30,08,07,5.80
2012,09,30,08,08,5.80
2012,09,30,08,09,5.80
2012,09,30,08,10,5.80
2012,09,30,08,11,5.80
2012,09,30,08,12,5.80
2012,09,30,08,13,5.80
2012,09,30,08,14,5.80
2012,09,30,08,15,5.80
2012,09,30,08,16,5.80
2012,09,30,08,17,5.80
2012,09,30,08,18,5.80
2012,09,30,08,19,5.80
2012,09,30,08,20,5.80
2012,09,30,08,21,5.80
2012,09,30,08,22,5.80
2012,09,30,08,23,5.80
2012,09,30,08,24,5.80
2012,09,30,08,25,5.80
2012,09,30,08,26,5.80
2012,09,30,08,27,5.80
2012,09,30,08,28,5.80
2012,09,30,08,29,5.90
2012,09,30,08,30,5.90
2012,09,30,08,31,5.90
2012,09,30,08,32,5.90
2012,09,30,08,33,5.90
2012,09,30,08,34,6.00
2012,09,30,08,35,6.00
2012,09,30,08,36,6.00
2012,09,30,08,37,6.00
2012,09,30,08,38,6.10
2012,09,30,08,39,6.10
2012,09,30,08,40,6.10
2012,09,30,08,41,6.10
2012,09,30,08,42,6.10
2012,09,30,08,43,6.20
2012,09,30,08,44,6.20
2012,09,30,08,45,6.20
2012,09,30,08,46,6.20
2012,09,30,08,47,6.30
2012,09,30,08,48,6.30
2012,09,30,08,49,6.30
2012,09,30,08,50,6.40
2012,09,30,08,51,6.40
2012,09,30,08,52,6.50
2012,09,30,08,53,6.60
2012,09,30,08,54,6.60
2012,09,30,08,55,6.70
2012,09,30,08,56,6.80
2012,09,30,08,57,6.80
2012,09,30,08,58,6.90
2012,09,30,08,59,6.90
2012,09,30,09,00,7.00
2012,09,30,09,01,7.10
2012,09,30,09,02,7.10
2012,09,30,09,03,7.10
2012,09,30,09,04,7.20
2012,09,30,09,05,7.20
2012,09,30,09,06,7.30
2012,09,30,09,07,7.30
2012,09,30,09,08,7.30
2012,09,30,09,09,7.30
2012,09,30,09,10,7.40
2012,09,30,09,11,7.50
2012,09,30,09,12,7.50
2012,09,30,09,13,7.60
2012,09,30,09,14,7.70
2012,09,30,09,15,7.70
2012,09,30,09,16,7.80
2012,09,30,09,17,7.80
2012,09,30,09,18,7.90
2012,09,30,09,19,8.00
2012,09,30,09,20,8.00
2012,09,30,09,21,8.10
2012,09,30,09,22,8.10
2012,09,30,09,23,8.20
2012,09,30,09,24,8.20
2012,09,30,09,25,8.20
2012,09,30,09,26,8.30
2012,09,30,09,27,8.30
2012,09,30,09,28,8.30
2012,09,30,09,29,8.30
2012,09,30,09,30,8.40
2012,09,30,09,31,8.40
2012,09,30,09,32,8.50
2012,09,30,09,33,8.60
2012,09,30,09,34,8.60
2012,09,30,09,35,8.70
2012,09,30,09,36,8.70
2012,09,30,09,37,8.80
2012,09,30,09,38,8.80
2012,09,30,09,39,8.90
2012,09,30,09,40,8.90
2012,09,30,09,41,8.90
2012,09,30,09,42,9.00
2012,09,30,09,43,9.10
2012,09,30,09,44,9.10
2012,09,30,09,45,9.20
2012,09,30,09,46,9.20
2012,09,30,09,47,9.30
2012,09,30,09,48,9.30
2012,09,30,09,49,9.40
2012,09,30,09,50,9.50
2012,09,30,09,51,9.60
2012,09,30,09,52,9.60
2012,09,30,09,53,9.70
2012,09,30,09,54,9.80
2012,09,30,09,55,9.80
2012,09,30,09,56,9.90
2012,09,30,09,57,10.00
2012,09,30,09,58,10.10
2012,09,30,09,59,10.10
2012,09,30,10,00,10.20
2012,09,30,10,01,10.30
2012,09,30,10,02,10.30
2012,09,30,10,03,10.40
2012,09,30,10,04,10.40
2012,09,30,10,05,10.50
2012,09,30,10,06,10.50
2012,09,30,10,07,10.50
2012,09,30,10,08,10.50
2012,09,30,10,09,10.50
2012,09,30,10,10,10.60
2012,09,30,10,11,10.60
2012,09,30,10,12,10.70
2012,09,30,10,13,10.70
2012,09,30,10,14,10.70
2012,09,30,10,15,10.70
2012,09,30,10,16,10.80
2012,09,30,10,17,10.80
2012,09,30,10,18,10.90
2012,09,30,10,19,11.00
2012,09,30,10,20,11.10
2012,09,30,10,21,11.20
2012,09,30,10,22,11.30
2012,09,30,10,23,11.40
2012,09,30,10,24,11.40
2012,09,30,10,25,11.50
2012,09,30,10,26,11.60
2012,09,30,10,27,11.70
2012,09,30,10,28,11.80
2012,09,30,10,29,11.90
2012,09,30,10,30,12.00
2012,09,30,10,31,12.10
2012,09,30,10,32,12.20
2012,09,30,10,33,12.20
2012,09,30,10,34,12.30
2012,09,30,10,35,12.50
2012,09,30,10,36,12.50
2012,09,30,10,37,12.60
2012,09,30,10,38,12.70
2012,09,30,10,39,12.80
2012,09,30,10,40,12.80
2012,09,30,10,41,12.90
2012,09,30,10,42,13.00
2012,09,30,10,43,13.10
2012,09,30,10,44,13.10
2012,09,30,10,45,13.10
2012,09,30,10,46,13.00
2012,09,30,10,47,12.90
2012,09,30,10,48,12.70
2012,09,30,10,49,12.50
2012,09,30,10,50,12.40
2012,09,30,10,51,12.20
2012,09,30,10,52,12.10
2012,09,30,10,53,11.90
2012,09,30,10,54,11.80
2012,09,30,10,55,11.70
2012,09,30,10,56,11.70
2012,09,30,10,57,11.60
2012,09,30,10,58,11.60
2012,09,30,10,59,11.60
2012,09,30,11,00,11.60
2012,09,30,11,01,11.70
2012,09,30,11,02,11.70
2012,09,30,11,03,11.80
2012,09,30,11,04,11.80
2012,09,30,11,05,11.90
2012,09,30,11,06,11.90
2012,09,30,11,07,11.90
2012,09,30,11,08,11.90
2012,09,30,11,09,12.00
2012,09,30,11,10,12.00
2012,09,30,11,11,12.00
2012,09,30,11,12,12.00
2012,09,30,11,13,11.90
2012,09,30,11,14,11.90
2012,09,30,11,15,11.90
2012,09,30,11,16,11.90
2012,09,30,11,17,11.90
2012,09,30,11,18,11.80
2012,09,30,11,19,11.80
2012,09,30,11,20,11.80
2012,09,30,11,21,11.80
2012,09,30,11,22,11.80
2012,09,30,11,23,11.80
2012,09,30,11,24,11.80
2012,09,30,11,25,11.80
2012,09,30,11,26,11.90
2012,09,30,11,27,11.90
2012,09,30,11,28,12.00
2012,09,30,11,29,12.00
2012,09,30,11,30,12.10
2012,09,30,11,31,12.10
2012,09,30,11,32,12.20
2012,09,30,11,33,12.20
2012,09,30,11,34,12.30
2012,09,30,11,35,12.40
2012,09,30,11,36,12.50
2012,09,30,11,37,12.60
2012,09,30,11,38,12.60
2012,09,30,11,39,12.60
2012,09,30,11,40,12.60
2012,09,30,11,41,12.50
2012,09,30,11,42,12.50
2012,09,30,11,43,12.40
2012,09,30,11,44,12.40
2012,09,30,11,45,12.40
2012,09,30,11,46,12.40
2012,09,30,11,47,12.40
2012,09,30,11,48,12.40
2012,09,30,11,49,12.40
2012,09,30,11,50,12.40
2012,09,30,11,51,12.30
2012,09,30,11,52,12.30
2012,09,30,11,53,12.30
2012,09,30,11,54,12.30
2012,09,30,11,55,12.30
2012,09,30,11,56,12.20
2012,09,30,11,57,12.20
2012,09,30,11,58,12.20
2012,09,30,11,59,12.10
2012,09,30,12,00,12.00
2012,09,30,12,01,12.00
2012,09,30,12,02,11.90
2012,09,30,12,03,11.90
2012,09,30,12,04,12.00
2012,09,30,12,05,12.00
2012,09,30,12,06,11.90
2012,09,30,12,07,11.90
2012,09,30,12,08,11.90
2012,09,30,12,09,11.90
2012,09,30,12,10,12.00
2012,09,30,12,11,12.00
2012,09,30,12,12,12.10
2012,09,30,12,13,12.20
2012,09,30,12,14,12.30
2012,09,30,12,15,12.40
2012,09,30,12,16,12.50
2012,09,30,12,17,12.60
2012,09,30,12,18,12.70
2012,09,30,12,19,12.80
2012,09,30,12,20,12.80
2012,09,30,12,21,12.70
2012,09,30,12,22,12.70
2012,09,30,12,23,12.60
2012,09,30,12,24,12.50
2012,09,30,12,25,12.40
2012,09,30,12,26,12.30
2012,09,30,12,27,12.30
2012,09,30,12,28,12.30
2012,09,30,12,29,12.30
2012,09,30,12,30,12.30
2012,09,30,12,31,12.20
2012,09,30,12,32,12.20
2012,09,30,12,33,12.10
2012,09,30,12,34,12.10
2012,09,30,12,35,12.10
2012,09,30,12,36,12.10
2012,09,30,12,37,12.10
2012,09,30,12,38,12.00
2012,09,30,12,39,12.10
2012,09,30,12,40,12.00
2012,09,30,12,41,12.00
2012,09,30,12,42,12.00
2012,09,30,12,43,12.00
2012,09,30,12,44,12.00
2012,09,30,12,45,12.10
2012,09,30,12,46,12.10
2012,09,30,12,47,12.10
2012,09,30,12,48,12.20
2012,09,30,12,49,12.20
2012,09,30,12,50,12.30
2012,09,30,12,51,12.30
2012,09,30,12,52,12.40
2012,09,30,12,53,12.50
2012,09,30,12,54,12.60
2012,09,30,12,55,12.60
2012,09,30,12,56,12.70
2012,09,30,12,57,12.80
2012,09,30,12,58,12.90
2012,09,30,12,59,13.00
2012,09,30,13,00,13.00
2012,09,30,13,01,13.10
2012,09,30,13,02,13.10
2012,09,30,13,03,13.10
2012,09,30,13,04,13.10
2012,09,30,13,05,13.10
2012,09,30,13,06,13.10
2012,09,30,13,07,13.10
2012,09,30,13,08,13.10
2012,09,30,13,09,13.10
2012,09,30,13,10,13.10
2012,09,30,13,11,13.10
2012,09,30,13,12,13.10
2012,09,30,13,13,13.20
2012,09,30,13,14,13.30
2012,09,30,13,15,13.40
2012,09,30,13,16,13.50
2012,09,30,13,17,13.60
2012,09,30,13,18,13.70
2012,09,30,13,19,13.80
2012,09,30,13,20,13.90
2012,09,30,13,21,14.00
2012,09,30,13,22,14.00
2012,09,30,13,23,14.10
2012,09,30,13,24,14.20
2012,09,30,13,25,14.30
2012,09,30,13,26,14.30
2012,09,30,13,27,14.40
2012,09,30,13,28,14.40
2012,09,30,13,29,14.40
2012,09,30,13,30,14.50
2012,09,30,13,31,14.60
2012,09,30,13,32,14.60
2012,09,30,13,33,14.60
2012,09,30,13,34,14.50
2012,09,30,13,35,14.50
2012,09,30,13,36,14.40
2012,09,30,13,37,14.30
2012,09,30,13,38,14.30
2012,09,30,13,39,14.30
2012,09,30,13,40,14.20
2012,09,30,13,41,14.20
2012,09,30,13,42,14.20
2012,09,30,13,43,14.20
2012,09,30,13,44,14.10
2012,09,30,13,45,14.10
2012,09,30,13,46,14.10
2012,09,30,13,47,14.00
2012,09,30,13,48,14.00
2012,09,30,13,49,13.90
2012,09,30,13,50,13.90
2012,09,30,13,51,13.80
2012,09,30,13,52,13.80
2012,09,30,13,53,13.80
2012,09,30,13,54,13.70
2012,09,30,13,55,13.70
2012,09,30,13,56,13.70
2012,09,30,13,57,13.70
2012,09,30,13,58,13.70
2012,09,30,13,59,13.70
2012,09,30,14,00,13.70
2012,09,30,14,01,13.80
2012,09,30,14,02,13.80
2012,09,30,14,03,13.90
2012,09,30,14,04,13.90
2012,09,30,14,05,14.00
2012,09,30,14,06,14.00
2012,09,30,14,07,14.10
2012,09,30,14,08,14.10
2012,09,30,14,09,14.10
2012,09,30,14,10,14.20
2012,09,30,14,11,14.20
2012,09,30,14,12,14.20
2012,09,30,14,13,14.20
2012,09,30,14,14,14.20
2012,09,30,14,15,14.20
2012,09,30,14,16,14.30
2012,09,30,14,17,14.30
2012,09,30,14,18,14.30
2012,09,30,14,19,14.30
2012,09,30,14,20,14.40
2012,09,30,14,21,14.40
2012,09,30,14,22,14.40
2012,09,30,14,23,14.50
2012,09,30,14,24,14.50
2012,09,30,14,25,14.60
2012,09,30,14,26,14.60
2012,09,30,14,27,14.70
2012,09,30,14,28,14.70
2012,09,30,14,29,14.80
2012,09,30,14,30,14.80
2012,09,30,14,31,14.90
2012,09,30,14,32,15.00
2012,09,30,14,33,15.10
2012,09,30,14,34,15.20
2012,09,30,14,35,15.30
2012,09,30,14,36,15.30
2012,09,30,14,37,15.40
2012,09,30,14,38,15.50
2012,09,30,14,39,15.60
2012,09,30,14,40,15.60
2012,09,30,14,41,15.70
2012,09,30,14,42,15.70
2012,09,30,14,43,15.70
2012,09,30,14,44,15.80
2012,09,30,14,45,15.90
2012,09,30,14,46,15.90
2012,09,30,14,47,15.90
2012,09,30,14,48,15.90
2012,09,30,14,49,15.90
2012,09,30,14,50,15.90
2012,09,30,14,51,15.90
2012,09,30,14,52,15.80
2012,09,30,14,53,15.70
2012,09,30,14,54,15.70
2012,09,30,14,55,15.60
2012,09,30,14,56,15.40
2012,09,30,14,57,15.20
2012,09,30,14,58,15.00
2012,09,30,14,59,14.80
2012,09,30,15,00,14.70
2012,09,30,15,01,14.50
2012,09,30,15,02,14.40
2012,09,30,15,03,14.30
2012,09,30,15,04,14.20
2012,09,30,15,05,14.10
2012,09,30,15,06,14.10
2012,09,30,15,07,14.00
2012,09,30,15,08,14.00
2012,09,30,15,09,13.90
2012,09,30,15,10,13.90
2012,09,30,15,11,13.90
2012,09,30,15,12,13.90
2012,09,30,15,13,13.90
2012,09,30,15,14,13.90
2012,09,30,15,15,13.90
2012,09,30,15,16,13.90
2012,09,30,15,17,13.90
2012,09,30,15,18,13.90
2012,09,30,15,19,14.00
2012,09,30,15,20,14.10
2012,09,30,15,21,14.20
2012,09,30,15,22,14.30
2012,09,30,15,23,14.50
2012,09,30,15,24,14.60
2012,09,30,15,25,14.80
2012,09,30,15,26,14.90
2012,09,30,15,27,15.00
2012,09,30,15,28,15.20
2012,09,30,15,29,15.30
2012,09,30,15,30,15.40
2012,09,30,15,31,15.50
2012,09,30,15,32,15.60
2012,09,30,15,33,15.70
2012,09,30,15,34,15.70
2012,09,30,15,35,15.80
2012,09,30,15,36,16.00
2012,09,30,15,37,16.00
2012,09,30,15,38,16.10
2012,09,30,15,39,16.30
2012,09,30,15,40,16.30
2012,09,30,15,41,16.40
2012,09,30,15,42,16.50
2012,09,30,15,43,16.60
2012,09,30,15,44,16.60
2012,09,30,15,45,16.70
2012,09,30,15,46,16.70
2012,09,30,15,47,16.70
2012,09,30,15,48,16.70
2012,09,30,15,49,16.60
2012,09,30,15,50,16.50
2012,09,30,15,51,16.50
2012,09,30,15,52,16.50
2012,09,30,15,53,16.50
2012,09,30,15,54,16.60
2012,09,30,15,55,16.60
2012,09,30,15,56,16.60
2012,09,30,15,57,16.60
2012,09,30,15,58,16.70
2012,09,30,15,59,16.70
2012,09,30,16,00,16.70
2012,09,30,16,01,16.80
2012,09,30,16,02,16.80
2012,09,30,16,03,16.90
2012,09,30,16,04,16.90
2012,09,30,16,05,17.00
2012,09,30,16,06,17.00
2012,09,30,16,07,17.10
2012,09,30,16,08,17.10
2012,09,30,16,09,17.10
2012,09,30,16,10,17.10
2012,09,30,16,11,17.10
2012,09,30,16,12,17.00
2012,09,30,16,13,17.00
2012,09,30,16,14,16.90
2012,09,30,16,15,16.90
2012,09,30,16,16,16.90
2012,09,30,16,17,17.00
2012,09,30,16,18,17.00
2012,09,30,16,19,17.10
2012,09,30,16,20,17.10
2012,09,30,16,21,17.10
2012,09,30,16,22,17.20
2012,09,30,16,23,17.20
2012,09,30,16,24,17.30
2012,09,30,16,25,17.30
2012,09,30,16,26,17.30
2012,09,30,16,27,17.40
2012,09,30,16,28,17.40
2012,09,30,16,29,17.40
2012,09,30,16,30,17.40
2012,09,30,16,31,17.30
2012,09,30,16,32,17.20
2012,09,30,16,33,17.20
2012,09,30,16,34,17.20
2012,09,30,16,35,17.10
2012,09,30,16,36,17.10
2012,09,30,16,37,17.00
2012,09,30,16,38,17.00
2012,09,30,16,39,16.90
2012,09,30,16,40,16.90
2012,09,30,16,41,16.90
2012,09,30,16,42,16.80
2012,09,30,16,43,16.80
2012,09,30,16,44,16.80
2012,09,30,16,45,16.80
2012,09,30,16,46,16.80
2012,09,30,16,47,16.80
2012,09,30,16,48,16.80
2012,09,30,16,49,16.80
2012,09,30,16,50,16.80
2012,09,30,16,51,16.80
2012,09,30,16,52,16.80
2012,09,30,16,53,16.70
2012,09,30,16,54,16.70
2012,09,30,16,55,16.60
2012,09,30,16,56,16.60
2012,09,30,16,57,16.60
2012,09,30,16,58,16.50
2012,09,30,16,59,16.50
2012,09,30,17,00,16.40
2012,09,30,17,01,16.30
2012,09,30,17,02,16.20
2012,09,30,17,03,16.10
2012,09,30,17,04,16.00
2012,09,30,17,05,16.00
2012,09,30,17,06,15.90
2012,09,30,17,07,15.90
2012,09,30,17,08,15.90
2012,09,30,17,09,15.80
2012,09,30,17,10,15.80
2012,09,30,17,11,15.80
2012,09,30,17,12,15.80
2012,09,30,17,13,15.80
2012,09,30,17,14,15.70
2012,09,30,17,15,15.70
2012,09,30,17,16,15.70
2012,09,30,17,17,15.60
2012,09,30,17,18,15.60
2012,09,30,17,19,15.50
2012,09,30,17,20,15.50
2012,09,30,17,21,15.40
2012,09,30,17,22,15.40
2012,09,30,17,23,15.40
2012,09,30,17,24,15.30
2012,09,30,17,25,15.30
2012,09,30,17,26,15.30
2012,09,30,17,27,15.30
2012,09,30,17,28,15.20
2012,09,30,17,29,15.20
2012,09,30,17,30,15.20
2012,09,30,17,31,15.10
2012,09,30,17,32,15.10
2012,09,30,17,33,15.10
2012,09,30,17,34,15.10
2012,09,30,17,35,15.00
2012,09,30,17,36,15.00
2012,09,30,17,37,15.10
2012,09,30,17,38,15.10
2012,09,30,17,39,15.10
2012,09,30,17,40,15.00
2012,09,30,17,41,15.00
2012,09,30,17,42,15.00
2012,09,30,17,43,14.90
2012,09,30,17,44,15.00
2012,09,30,17,45,14.90
2012,09,30,17,46,14.90
2012,09,30,17,47,14.90
2012,09,30,17,48,14.90